This is the latest recevied weather packets stored in our database for station/object W3JBS-2. If no packets are shown the sender has not sent any weather packets the latest 10 day(s).
| Time | Temp. | Humidity | Pressure | Rain* | Wind** | Luminosity | Snow |
|---|---|---|---|---|---|---|---|
| 1777963021 | 13.89° C | 69% | 1009.8 hPa | 0 mm | - | - | - |
| 1777962121 | 13.89° C | 69% | 1009.8 hPa | 0 mm | - | - | - |
| 1777961220 | 13.33° C | 68% | 1009.8 hPa | 0 mm | - | - | - |
| 1777960321 | 13.33° C | 66% | 1010 hPa | 0 mm | - | - | - |
| 1777959420 | 14.44° C | 63% | 1010 hPa | 0 mm | - | - | - |
| 1777958520 | 15° C | 61% | 1009.9 hPa | 0 mm | - | - | - |
| 1777957621 | 15° C | 60% | 1010 hPa | 0 mm | - | - | - |
| 1777956720 | 15.56° C | 58% | 1009.9 hPa | 0 mm | - | - | - |
| 1777955820 | 16.11° C | 58% | 1009.9 hPa | 0 mm | - | - | - |
| 1777954921 | 16.11° C | 56% | 1009.8 hPa | 0 mm | - | - | - |
| 1777954021 | 16.11° C | 56% | 1009.7 hPa | 0 mm | - | - | - |
| 1777953121 | 16.11° C | 55% | 1009.7 hPa | 0 mm | - | - | - |
| 1777952220 | 16.11° C | 55% | 1009.7 hPa | 0 mm | - | - | - |
| 1777951321 | 15.56° C | 55% | 1009.9 hPa | 0 mm | - | - | - |
| 1777950421 | 15.56° C | 54% | 1010 hPa | 0 mm | - | - | - |
| 1777949520 | 15.56° C | 53% | 1009.8 hPa | 0 mm | - | - | - |
| 1777948620 | 15.56° C | 53% | 1010 hPa | 0 mm | - | - | - |
| 1777947721 | 16.11° C | 52% | 1010.1 hPa | 0 mm | - | - | - |
| 1777946820 | 16.11° C | 52% | 1010.1 hPa | 0 mm | - | - | - |
| 1777945920 | 16.11° C | 52% | 1010 hPa | 0 mm | - | - | - |
| 1777945021 | 16.11° C | 50% | 1009.9 hPa | 0 mm | - | - | - |
| 1777944121 | 16.67° C | 50% | 1009.9 hPa | 0 mm | - | - | - |
| 1777943220 | 16.67° C | 49% | 1009.7 hPa | 0 mm | - | - | - |
| 1777942320 | 16.67° C | 49% | 1009.6 hPa | 0 mm | - | - | - |
| 1777941420 | 17.78° C | 47% | 1009.5 hPa | 0 mm | - | - | - |
* Rain latest hour (hover to see other rain measurements)
** Current wind speed in m/s (hover to see current wind gust speed)